Wind_Speed
8 8 8 7 7 7 7 7 6 5 6 5 5 4 4 4 4 4 4 3 3 3 3 3 3 4 4 4 5 5 5 4 4 4 3 2 1 1 1 2 2 3 4
9 9 9 7 7 7 7 7 6 6 5 5 5 4 4 4 4 4 3 3 3 3 3 4 4 3 4 4 4 5 5 4 4 4 3 2 1 1 1 1 1 2 3
9 9 9 8 7 6 7 7 6 6 6 5 5 4 4 3 3 3 3 3 3 3 3 3 4 4 4 4 4 4 4 4 4 4 3 2 2 1 1 2 2 2 2
9 9 9 7 7 6 6 7 6 5 6 5 5 4 4 3 3 3 3 3 3 3 3 2 3 3 3 3 4 4 4 4 4 4 4 3 3 2 2 2 2 2 2
9 9 9 8 7 7 7 7 6 6 6 6 5 4 4 3 3 3 3 3 3 3 2 2 2 3 3 3 3 3 4 4 4 4 3 4 3 3 3 2 2 2 2
9 9 9 8 8 8 7 6 6 6 6 5 5 4 4 4 4 4 4 4 4 3 3 3 2 3 4 3 3 3 3 3 4 3 3 3 3 3 2 2 2 2 1
9 9 9 8 8 8 7 5 6 5 5 5 5 4 4 4 4 4 4 4 4 4 3 3 3 3 3 4 4 4 4 4 5 4 4 4 3 3 2 2 1 1 1
9 9 8 8 8 8 7 6 5 5 5 5 4 4 4 4 4 4 3 4 3 3 4 4 4 3 3 4 4 4 4 5 5 4 5 4 3 3 4 3 3 3 3
9 9 8 8 8 8 8 7 6 5 5 5 5 4 5 4 3 4 3 4 3 4 4 4 4 4 4 4 3 4 5 5 5 5 4 5 5 5 5 5 5 5 4
9 8 7 8 7 7 7 7 6 5 5 5 5 5 5 4 4 4 4 4 4 4 4 5 5 5 4 4 4 4 5 6 5 5 5 5 6 6 6 5 5 5 4
8 8 7 7 7 7 7 7 6 6 6 5 5 5 4 4 4 4 4 4 4 5 5 5 6 6 5 5 5 5 6 7 7 6 7 6 6 7 6 6 5 5 5
9 8 7 7 7 7 7 7 6 5 5 5 5 5 5 5 5 5 4 4 5 5 4 5 5 6 6 6 6 6 6 7 7 7 7 7 6 6 6 6 6 6 6
9 8 8 7 7 7 7 7 7 6 5 5 5 5 5 5 5 5 5 5 5 4 4 5 5 6 6 6 6 6 6 6 6 6 7 7 7 7 7 6 6 7 7
10 9 9 8 8 8 8 8 7 7 7 6 6 6 6 6 6 6 5 5 5 5 5 5 6 6 7 7 7 7 6 6 7 6 6 6 6 6 6 6 6 7 7
12 11 9 8 8 8 8 8 7 8 7 7 7 7 7 7 6 6 5 5 5 4 4 5 5 6 6 6 7 7 7 7 7 7 6 6 6 6 6 6 7 7 8
12 12 9 9 9 9 9 9 8 8 8 7 7 7 7 7 6 6 5 6 6 5 5 5 6 6 5 6 6 7 7 7 7 7 7 7 7 7 7 7 8 8 8
12 11 11 10 11 11 11 10 9 8 8 8 8 7 8 7 7 7 7 7 6 6 5 5 5 5 5 6 7 8 7 7 7 7 7 8 8 8 8 8 8 8 9
12 11 12 12 12 11 11 10 9 9 9 9 9 9 9 8 8 7 7 7 7 6 5 5 5 6 6 7 7 8 8 7 7 8 8 8 8 8 8 8 8 8 8
14 13 13 13 12 11 11 11 10 10 9 9 9 9 9 9 8 8 7 7 7 7 6 6 7 7 7 8 8 9 9 9 9 9 9 9 9 9 9 9 8 8 9
15 14 14 14 13 12 12 12 11 10 10 10 9 9 10 10 10 10 8 8 7 7 7 7 8 8 8 8 9 10 10 10 10 10 9 10 10 10 10 10 10 11 11
15 15 15 15 14 13 13 12 11 11 10 10 10 10 11 11 11 10 8 8 7 8 8 8 8 9 9 10 10 10 11 11 11 11 11 11 11 10 11 12 12 13 13
16 17 17 16 15 14 13 13 13 11 10 10 10 11 11 11 11 11 9 8 8 9 9 10 10 10 10 11 11 11 11 11 11 12 13 13 13 13 14 14 14 14 15
17 18 17 17 17 15 14 14 13 12 11 11 11 11 11 11 11 11 10 10 10 10 10 10 11 11 11 12 12 13 13 13 13 13 14 15 15 15 14 14 15 15 15
18 18 17 16 16 15 15 14 14 14 13 13 12 12 12 12 12 11 11 11 12 12 11 11 11 11 11 11 11 12 13 13 13 13 14 15 15 15 15 14 14 15 15
18 18 17 17 16 16 16 15 14 14 14 13 13 13 12 12 12 12 12 12 13 13 12 12 12 12 11 11 12 12 13 14 14 14 14 15 14 15 15 16 16 17 17
18 18 18 18 17 17 16 16 15 15 14 14 14 14 14 13 13 13 14 14 14 14 14 14 13 13 13 13 13 13 14 14 13 13 13 14 15 16 17 17 17 18 18
Wind_Direction
5 4 1 356 354 351 346 340 334 333 326 322 319 309 302 302 305 303 307 299 289 276 266 264 250 234 217 207 203 200 202 196 185 188 194 202 197 211 228 209 196 181 184
5 4 1 356 354 352 349 346 341 338 335 325 320 317 304 297 299 301 300 292 277 273 267 262 245 227 215 216 214 209 209 199 192 194 200 217 214 228 241 251 225 197 203
4 3 360 353 351 352 352 351 346 344 341 333 321 322 315 304 301 305 296 287 280 271 265 255 238 228 215 214 217 214 207 203 198 201 201 206 201 235 243 244 231 196 200
357 358 359 354 352 352 351 349 348 348 343 338 333 329 318 310 308 308 300 285 281 272 260 251 237 221 204 206 205 200 195 196 192 201 209 218 228 246 258 264 241 212 211
353 353 353 354 352 350 345 344 349 350 346 341 336 333 327 316 309 305 303 293 282 275 268 237 225 223 219 217 222 208 194 197 194 203 210 222 234 237 237 265 248 225 252
350 352 349 349 349 349 345 344 350 348 345 345 337 330 326 321 312 302 293 286 280 281 284 260 237 232 223 228 236 216 207 204 203 208 211 226 236 235 239 259 254 256 261
345 347 346 346 347 347 344 347 356 354 348 345 340 326 317 312 305 297 288 286 287 293 284 263 240 228 227 235 237 230 226 221 221 227 226 229 235 242 246 259 253 258 266
341 342 344 344 344 346 344 335 341 355 353 344 335 329 317 308 295 302 300 293 286 288 283 257 241 233 234 239 239 243 239 235 233 233 238 232 236 246 252 261 261 268 271
334 336 340 341 341 341 343 339 336 344 348 344 340 330 322 324 317 304 303 300 284 281 284 263 249 244 242 245 248 248 241 239 236 239 238 243 253 259 259 260 260 272 277
328 329 330 332 335 337 340 340 333 339 343 340 339 328 318 318 317 303 297 298 293 289 280 266 260 251 243 248 253 254 252 244 240 239 243 256 259 262 263 265 262 269 274
326 325 323 325 327 330 335 335 332 331 332 329 324 322 321 318 311 299 295 297 291 286 284 270 265 262 254 254 256 256 256 252 248 249 253 258 260 263 266 267 270 274 273
320 319 316 318 322 322 327 331 328 324 323 320 311 314 313 312 307 294 285 292 291 288 283 273 267 262 257 254 259 264 261 259 257 254 256 257 257 257 261 267 272 275 272
310 312 313 311 313 317 320 325 327 324 323 319 315 318 310 315 314 299 282 278 277 278 280 275 265 261 261 259 261 265 266 263 261 256 257 256 257 264 264 264 271 274 272
305 303 302 306 305 307 309 315 319 318 320 319 322 319 318 317 311 307 298 278 276 274 279 285 272 270 262 258 254 256 261 261 259 258 260 260 262 269 268 270 270 271 272
298 298 299 296 296 296 302 311 312 316 316 319 317 316 319 318 317 309 303 308 299 293 288 284 283 272 263 253 251 255 261 260 258 258 259 261 266 270 272 275 275 279 281
292 291 290 290 292 291 298 307 307 308 307 307 309 310 313 315 317 312 310 312 310 307 300 286 279 273 263 254 253 256 258 260 262 261 259 262 267 269 267 270 268 272 276
289 288 287 287 288 289 293 299 302 303 300 301 300 304 304 307 305 302 304 308 305 301 296 285 277 273 263 252 252 251 251 253 259 267 262 261 264 268 268 271 271 270 274
285 287 287 285 283 284 288 292 295 293 292 298 297 301 303 303 306 304 292 297 295 295 296 286 279 274 266 260 255 249 249 252 254 262 264 263 264 267 266 268 272 272 276
282 282 285 285 280 280 283 285 286 288 287 293 296 300 303 305 305 306 294 293 294 291 291 286 282 274 270 265 260 257 256 257 258 263 265 266 266 266 267 265 268 271 275
280 279 282 283 282 279 277 279 280 286 284 286 288 295 301 306 305 299 297 292 295 291 287 285 282 276 273 269 263 262 262 260 259 263 266 268 269 267 264 263 265 268 272
278 277 282 280 280 276 275 277 277 281 282 280 283 289 296 303 302 298 293 292 295 292 287 287 285 281 276 272 268 265 262 260 262 263 266 268 269 270 267 264 264 266 271
277 277 276 275 276 270 270 270 271 274 280 277 279 284 290 296 296 292 283 289 293 292 288 285 283 281 277 275 272 268 261 260 260 262 262 265 268 270 270 268 265 266 268
276 278 277 274 274 267 267 266 265 267 274 275 277 283 286 288 289 288 280 284 288 288 285 284 284 283 281 277 270 264 264 263 263 263 264 266 268 270 272 270 267 267 268
275 277 277 277 274 270 269 265 262 264 269 271 273 279 280 281 283 282 280 281 283 286 285 283 282 280 279 278 273 269 267 265 266 267 268 269 271 270 271 271 269 271 273
272 275 275 275 273 270 270 263 262 263 268 267 269 275 277 277 276 275 276 277 281 283 283 283 283 279 276 276 274 271 265 265 267 267 268 268 270 271 272 270 269 271 278
270 271 269 268 269 267 264 262 260 262 266 268 267 271 275 272 272 274 274 275 278 279 281 282 281 279 277 275 273 270 268 265 267 269 270 270 272 275 274 271 270 272 276
Height
5890 5888 5887 5886 5885 5884 5883 5883 5882 5881 5880 5880 5879 5878 5878 5878 5878 5877 5877 5876 5876 5875 5875 5874 5874 5874 5874 5874 5874 5875 5874 5875 5876 5876 5876 5876 5876 5876 5876 5875 5875 5875 5876
5890 5888 5887 5886 5885 5884 5883 5882 5881 5881 5880 5879 5879 5878 5877 5877 5877 5876 5876 5876 5875 5875 5874 5874 5874 5874 5874 5874 5874 5874 5874 5874 5875 5876 5876 5876 5876 5876 5876 5875 5875 5876 5876
5889 5888 5887 5886 5885 5884 5883 5882 5881 5880 5880 5879 5878 5878 5877 5876 5876 5876 5875 5875 5875 5874 5874 5873 5873 5873 5873 5874 5874 5874 5874 5875 5875 5875 5876 5876 5876 5876 5876 5875 5876 5876 5876
5890 5888 5887 5886 5885 5884 5883 5882 5881 5880 5879 5878 5878 5877 5876 5876 5876 5875 5875 5874 5874 5874 5873 5873 5873 5873 5873 5873 5873 5873 5874 5874 5874 5875 5875 5876 5875 5875 5875 5875 5875 5875 5876
5890 5889 5888 5887 5885 5884 5883 5882 5881 5880 5879 5878 5877 5877 5876 5876 5875 5875 5875 5874 5874 5873 5873 5873 5872 5872 5872 5873 5873 5873 5874 5874 5874 5874 5875 5875 5875 5875 5875 5875 5875 5875 5875
5889 5888 5887 5886 5885 5884 5882 5881 5880 5879 5878 5877 5876 5876 5876 5875 5875 5874 5874 5874 5873 5873 5873 5872 5872 5872 5872 5873 5873 5873 5873 5873 5873 5874 5874 5875 5875 5875 5875 5875 5875 5875 5875
5889 5888 5887 5886 5885 5884 5882 5881 5880 5879 5878 5877 5876 5876 5875 5875 5874 5874 5873 5872 5872 5872 5872 5872 5872 5872 5872 5872 5872 5872 5872 5873 5873 5874 5874 5874 5874 5874 5874 5874 5874 5874 5874
5888 5887 5886 5885 5884 5883 5882 5881 5879 5878 5877 5876 5876 5875 5874 5874 5873 5873 5872 5872 5871 5871 5871 5871 5871 5871 5872 5872 5872 5872 5872 5872 5873 5873 5873 5874 5874 5874 5874 5874 5874 5873 5874
5887 5887 5886 5885 5884 5883 5881 5880 5879 5878 5877 5876 5875 5874 5873 5873 5872 5872 5871 5871 5871 5870 5870 5870 5870 5870 5871 5871 5871 5871 5871 5871 5872 5872 5872 5873 5873 5873 5873 5873 5873 5872 5872
5886 5885 5885 5884 5883 5882 5881 5880 5878 5877 5876 5875 5874 5873 5872 5871 5871 5871 5871 5870 5869 5869 5869 5869 5869 5870 5870 5870 5870 5870 5870 5870 5871 5871 5872 5872 5872 5872 5872 5872 5872 5871 5871
5885 5884 5883 5883 5882 5881 5880 5879 5878 5876 5875 5875 5874 5873 5872 5871 5870 5870 5869 5869 5868 5868 5868 5868 5868 5868 5869 5869 5869 5869 5869 5869 5869 5870 5870 5871 5870 5870 5870 5870 5870 5870 5870
5883 5883 5882 5881 5881 5880 5879 5878 5877 5876 5875 5874 5873 5872 5871 5870 5869 5868 5868 5868 5867 5867 5867 5867 5867 5867 5867 5867 5867 5867 5868 5868 5868 5869 5869 5869 5869 5869 5869 5869 5869 5868 5868
5881 5881 5881 5880 5879 5878 5877 5876 5875 5874 5873 5872 5871 5870 5870 5869 5868 5868 5867 5867 5866 5866 5866 5866 5865 5865 5866 5866 5866 5866 5866 5866 5867 5867 5868 5868 5868 5868 5867 5867 5867 5867 5867
5880 5879 5879 5878 5877 5876 5875 5875 5874 5873 5872 5871 5870 5870 5869 5868 5868 5867 5866 5866 5865 5865 5864 5864 5864 5864 5864 5864 5864 5864 5865 5865 5865 5866 5866 5866 5866 5866 5866 5866 5866 5865 5865
5877 5877 5876 5875 5875 5875 5874 5873 5872 5871 5870 5870 5869 5868 5868 5867 5866 5866 5865 5864 5864 5863 5863 5862 5862 5862 5862 5862 5862 5863 5863 5863 5864 5864 5864 5864 5864 5864 5864 5864 5864 5864 5863
5875 5874 5874 5873 5873 5872 5872 5871 5870 5869 5868 5868 5867 5866 5866 5866 5865 5864 5864 5863 5862 5862 5861 5860 5860 5860 5860 5860 5860 5861 5861 5862 5862 5862 5862 5862 5863 5862 5862 5862 5862 5862 5862
5872 5871 5871 5870 5870 5869 5869 5868 5868 5867 5866 5866 5865 5864 5864 5864 5863 5862 5862 5862 5861 5860 5860 5859 5859 5858 5858 5858 5858 5859 5859 5859 5860 5860 5860 5860 5860 5860 5860 5860 5860 5860 5860
5868 5868 5868 5868 5867 5866 5866 5865 5865 5865 5864 5864 5863 5862 5862 5861 5861 5860 5860 5860 5859 5859 5858 5858 5857 5857 5856 5856 5857 5857 5857 5858 5858 5858 5858 5858 5858 5858 5858 5858 5858 5857 5857
5865 5865 5864 5864 5864 5863 5863 5862 5862 5862 5862 5861 5861 5860 5860 5859 5859 5858 5858 5858 5857 5856 5856 5856 5855 5855 5855 5855 5855 5855 5855 5855 5855 5855 5855 5855 5855 5855 5855 5855 5855 5855 5855
5861 5861 5861 5861 5860 5860 5860 5859 5859 5858 5858 5858 5858 5858 5858 5857 5856 5856 5856 5855 5855 5854 5854 5853 5853 5852 5852 5852 5852 5852 5853 5853 5853 5853 5853 5853 5853 5853 5853 5853 5853 5852 5852
5858 5857 5857 5856 5856 5856 5856 5856 5856 5856 5855 5855 5855 5855 5855 5854 5854 5853 5853 5852 5852 5852 5851 5851 5850 5850 5850 5850 5850 5850 5850 5850 5850 5850 5850 5850 5850 5849 5849 5849 5849 5849 5848
5854 5853 5853 5853 5853 5853 5852 5853 5853 5852 5852 5852 5852 5852 5852 5852 5851 5851 5850 5850 5850 5849 5849 5848 5848 5847 5847 5846 5846 5846 5847 5847 5847 5846 5846 5846 5846 5846 5845 5845 5845 5845 5845
5850 5849 5849 5848 5848 5848 5848 5849 5849 5849 5849 5849 5849 5849 5849 5849 5848 5848 5848 5847 5847 5846 5846 5846 5845 5844 5844 5843 5843 5843 5843 5843 5843 5843 5842 5842 5842 5841 5841 5841 5840 5840 5840
5845 5845 5845 5844 5844 5844 5844 5845 5845 5845 5846 5846 5846 5846 5846 5845 5845 5845 5844 5844 5844 5843 5843 5842 5841 5841 5840 5840 5839 5839 5839 5839 5839 5839 5839 5838 5838 5837 5837 5836 5836 5836 5835
5841 5841 5841 5841 5841 5840 5840 5840 5841 5842 5842 5842 5842 5842 5842 5841 5841 5841 5841 5840 5840 5840 5839 5839 5838 5837 5836 5836 5835 5835 5835 5835 5835 5835 5834 5834 5834 5833 5832 5832 5831 5831 5830
5836 5836 5836 5836 5836 5836 5837 5837 5837 5838 5838 5838 5838 5838 5838 5837 5837 5837 5837 5836 5836 5836 5836 5835 5834 5833 5832 5832 5831 5830 5830 5830 5830 5830 5830 5830 5829 5829 5828 5827 5827 5826 5826